GW7390 Weather Reports


time (UTC)temp
C
wind
direction
speed
KPH
gust
KPH
rain 1hr
cm
rain 24hr
cm
rain mn
cm
humidity
%
barometer
mb
20260509213017 8 341 1.6 1.6 0.00 0.51 0.51 77 1061.8
20260509212017 8 339 1.6 1.6 0.00 0.51 0.51 77 1061.4
20260509211017 9 338 1.6 1.6 0.00 0.51 0.51 76 1061.1
20260509210017 10 336 1.6 1.6 0.00 0.51 0.51 76 1060.7
20260509205017 10 334 1.6 1.6 0.00 0.51 0.51 76 1060.3
20260509204016 11 332 1.6 1.6 0.00 0.51 0.51 75 1059.9
20260509203057 11 329 1.6 1.6 0.00 0.51 0.51 75 1059.5
20260509202017 12 327 1.6 1.6 0.00 0.51 0.51 75 1059.1
20260509201017 12 325 1.6 1.6 0.00 0.51 0.51 74 1058.7
20260509200017 12 322 1.6 1.6 0.00 0.51 0.51 74 1058.2
20260509195017 13 320 1.6 1.6 0.00 0.51 0.51 73 1057.8
20260509194017 13 318 1.6 1.6 0.00 0.51 0.51 73 1057.3
20260509193017 14 315 1.6 3.2 0.00 0.51 0.51 72 1056.8
20260509192039 15 312 1.6 3.2 0.00 0.51 0.51 72 1056.3
20260509191016 15 310 1.6 3.2 0.00 0.51 0.51 72 1055.8
20260509190018 15 307 1.6 3.2 0.00 0.51 0.51 71 1055.3
20260509185017 16 304 3.2 3.2 0.00 0.51 0.51 71 1054.7
20260509184017 16 301 3.2 3.2 0.00 0.51 0.51 70 1054.2
20260509183117 16 298 3.2 3.2 0.00 0.51 0.51 70 1053.6
20260509182018 17 295 3.2 3.2 0.00 0.51 0.51 69 1053.1
20260509181037 17 292 3.2 3.2 0.00 0.51 0.51 69 1052.5
20260509180018 17 289 3.2 3.2 0.00 0.51 0.51 68 1051.9
20260509175016 18 286 3.2 3.2 0.00 0.51 0.51 68 1051.3
20260509174037 18 283 3.2 4.8 0.00 0.51 0.51 67 1050.7
20260509173017 18 280 3.2 4.8 0.00 0.51 0.51 67 1050.1
20260509172037 18 276 3.2 4.8 0.00 0.51 0.51 66 1049.4
20260509171018 19 273 3.2 4.8 0.00 0.51 0.51 65 1048.8
20260509170017 19 270 4.8 4.8 0.00 0.51 0.51 65 1048.2
20260509165016 20 266 4.8 4.8 0.00 0.51 0.51 64 1047.5
20260509164016 20 263 4.8 4.8 0.00 0.51 0.51 64 1046.9
20260509163017 20 259 4.8 4.8 0.00 0.51 0.51 63 1046.2
20260509162017 20 256 4.8 6.4 0.00 0.51 0.51 63 1045.5
20260509161018 20 252 4.8 6.4 0.00 0.51 0.51 62 1044.8
20260509160018 20 248 4.8 6.4 0.00 0.51 0.51 61 1044.2
20260509155018 21 245 4.8 6.4 0.00 0.51 0.51 61 1043.5
20260509154017 21 241 4.8 6.4 0.00 0.51 0.51 60 1042.8
20260509153118 21 237 4.8 6.4 0.00 0.51 0.51 60 1042.1
20260509152016 21 234 6.4 6.4 0.00 0.51 0.51 59 1041.3
20260509151158 21 230 6.4 6.4 0.00 0.51 0.51 58 1040.6
20260509150017 21 226 6.4 6.4 0.00 0.51 0.51 58 1039.9
20260509145017 21 222 6.4 8.0 0.00 0.51 0.51 57 1039.2
20260509144016 21 218 6.4 8.0 0.00 0.51 0.51 56 1038.5
20260509143017 21 215 6.4 8.0 0.00 0.51 0.51 56 1037.7
20260509142018 21 211 6.4 8.0 0.00 0.51 0.51 55 1037.0
20260509141017 21 207 6.4 8.0 0.00 0.51 0.51 54 1036.3
20260509140017 20 203 6.4 8.0 0.00 0.51 0.51 54 1035.5
20260509135017 20 199 6.4 8.0 0.00 0.51 0.51 53 1034.8
20260509134016 20 195 8.0 9.7 0.00 0.51 0.51 53 1034.0
20260509133016 20 191 8.0 9.7 0.00 0.51 0.51 52 1033.3
20260509132016 20 187 8.0 9.7 0.00 0.51 0.51 51 1032.6
20260509131017 20 183 8.0 9.7 0.00 0.51 0.51 51 1031.8
20260509130016 19 179 8.0 9.7 0.00 0.51 0.51 50 1031.1
20260509125017 19 176 8.0 9.7 0.00 0.51 0.51 49 1030.3
20260509124017 18 172 8.0 9.7 0.00 0.51 0.51 49 1029.6
20260509123017 18 168 8.0 9.7 0.00 0.51 0.51 48 1028.8
20260509122018 18 164 8.0 11.3 0.00 0.51 0.51 47 1028.1
20260509121018 18 160 9.7 11.3 0.00 0.51 0.51 47 1027.3
20260509120017 17 156 9.7 11.3 0.00 0.51 0.51 46 1026.6
20260509115017 17 152 9.7 11.3 0.00 0.51 0.51 45 1025.9
20260509114016 17 148 9.7 11.3 0.00 0.51 0.51 45 1025.1
20260509113017 16 144 9.7 11.3 0.00 0.51 0.51 44 1024.4
20260509112016 16 141 9.7 11.3 0.00 0.51 0.51 43 1023.7
20260509111016 16 137 9.7 11.3 0.00 0.51 0.51 43 1022.9
20260509110016 15 133 9.7 12.9 0.00 0.51 0.51 42 1022.2
20260509105016 15 129 9.7 12.9 0.03 0.51 0.51 42 1021.5
20260509104017 14 125 11.3 12.9 0.05 0.51 0.51 41 1020.8
20260509103017 14 122 11.3 12.9 0.08 0.51 0.51 40 1020.1
20260509102017 13 118 11.3 12.9 0.10 0.51 0.51 40 1019.4
20260509101017 13 114 11.3 12.9 0.13 0.51 0.51 39 1018.7
20260509100017 12 111 11.3 12.9 0.15 0.51 0.51 38 1018.0
20260509095016 12 107 11.3 12.9 0.15 0.51 0.48 38 1017.3
20260509094017 11 103 11.3 14.5 0.15 0.51 0.46 37 1016.6
20260509093017 11 100 11.3 14.5 0.18 0.51 0.43 37 1016.0
20260509092017 11 96 11.3 14.5 0.18 0.51 0.41 36 1015.3
20260509091017 10 93 11.3 14.5 0.18 0.51 0.38 35 1014.6
20260509090016 10 90 12.9 14.5 0.18 0.51 0.36 35 1014.0
20260509085017 9 86 12.9 14.5 0.18 0.51 0.33 34 1013.3
20260509084016 8 83 12.9 14.5 0.18 0.51 0.30 34 1012.7
20260509083017 8 80 12.9 14.5 0.15 0.51 0.25 33 1012.1
20260509082017 7 76 12.9 14.5 0.15 0.51 0.23 33 1011.5
20260509081017 7 73 12.9 16.1 0.15 0.51 0.20 32 1010.9
20260509080017 7 70 12.9 16.1 0.18 0.51 0.18 32 1010.3
20260509075017 6 67 12.9 16.1 0.15 0.51 0.15 31 1009.7
20260509074017 6 64 12.9 16.1 0.13 0.51 0.13 31 1009.1
20260509073017 5 61 12.9 16.1 0.10 0.51 0.10 30 1008.5
20260509072017 5 58 12.9 16.1 0.08 0.51 0.08 30 1008.0
20260509071017 5 55 12.9 16.1 0.05 0.51 0.05 29 1007.5
20260509070017 4 52 14.5 16.1 0.00 0.51 0.00 29 1006.9
20260509065017 3 50 14.5 16.1 0.00 0.51 0.51 28 1006.4
20260509064017 3 47 14.5 16.1 0.00 0.51 0.51 28 1005.9
20260509063017 3 44 14.5 17.7 0.00 0.51 0.51 27 1005.4
20260509062037 2 42 14.5 17.7 0.00 0.51 0.51 27 1004.9
20260509061017 2 39 14.5 17.7 0.00 0.51 0.51 27 1004.4
20260509060017 2 37 14.5 17.7 0.00 0.51 0.51 26 1004.0
20260509055016 1 35 14.5 17.7 0.00 0.51 0.51 26 1003.5
20260509054057 1 32 14.5 17.7 0.00 0.51 0.51 25 1003.1
20260509053017 1 30 14.5 17.7 0.00 0.51 0.51 25 1002.7
20260509052017 1 28 14.5 17.7 0.00 0.51 0.51 25 1002.3
20260509051037 0 26 14.5 17.7 0.00 0.51 0.51 24 1001.9
20260509050018 0 24 14.5 17.7 0.00 0.51 0.51 24 1001.5
20260509045017 0 22 14.5 17.7 0.00 0.51 0.51 24 1001.1
20260509044016 0 20 14.5 17.7 0.00 0.51 0.51 23 1000.8
20260509043017 0 18 14.5 17.7 0.00 0.51 0.51 23 1000.5
20260509042016 0 17 16.1 17.7 0.00 0.51 0.51 23 1000.1
20260509041016 0 15 16.1 19.3 0.00 0.51 0.51 23 999.8
20260509040017 0 14 16.1 19.3 0.00 0.51 0.51 22 999.5
20260509035017 -1 12 16.1 19.3 0.00 0.51 0.51 22 999.3
20260509034017 -1 11 16.1 19.3 0.00 0.51 0.51 22 999.0
20260509033017 -1 9 16.1 19.3 0.00 0.51 0.51 22 998.8
20260509032017 -1 8 16.1 19.3 0.00 0.51 0.51 21 998.5
20260509031037 -1 7 16.1 19.3 0.00 0.51 0.51 21 998.3
20260509030017 -1 6 16.1 19.3 0.00 0.51 0.51 21 998.1
20260509025017 -1 5 16.1 19.3 0.00 0.51 0.51 21 997.9
20260509024118 -1 4 16.1 19.3 0.00 0.51 0.51 21 997.8
20260509023016 -1 3 16.1 19.3 0.00 0.51 0.51 21 997.6
20260509022017 -1 3 16.1 19.3 0.00 0.51 0.51 20 997.5
20260509021017 -1 2 16.1 19.3 0.00 0.51 0.51 20 997.4
20260509020158 0 1 16.1 19.3 0.00 0.51 0.51 20 997.3
20260509015017 0 1 16.1 19.3 0.00 0.51 0.51 20 997.2
20260509014017 0 1 16.1 19.3 0.00 0.51 0.51 20 997.1
20260509013157 0 0 16.1 19.3 0.00 0.51 0.51 20 997.0
20260509012016 0 0 16.1 19.3 0.00 0.51 0.51 20 997.0
20260509011017 0 0 16.1 19.3 0.00 0.51 0.51 20 997.0
20260509010016 0 0 16.1 19.3 0.00 0.51 0.51 20 997.0
20260509005017 0 0 16.1 19.3 0.00 0.51 0.51 20 997.0
20260509004016 1 0 16.1 19.3 0.00 0.51 0.51 20 997.0
20260509003037 1 0 16.1 19.3 0.00 0.51 0.51 20 997.1
20260509002017 1 1 16.1 19.3 0.00 0.51 0.51 20 997.1
20260509001016 1 1 16.1 19.3 0.00 0.51 0.51 20 997.2
20260509000017 2 2 16.1 19.3 0.00 0.51 0.51 20 997.3
20260508235017 2 2 16.1 19.3 0.00 0.51 0.51 20 997.4
20260508234017 2 3 16.1 19.3 0.00 0.51 0.51 20 997.5
20260508233037 3 4 16.1 19.3 0.00 0.51 0.51 21 997.7
20260508232017 3 4 16.1 19.3 0.00 0.51 0.51 21 997.8
20260508231017 3 5 16.1 19.3 0.00 0.51 0.51 21 998.0
20260508230017 4 6 16.1 19.3 0.00 0.51 0.51 21 998.2
20260508225017 5 7 16.1 19.3 0.00 0.51 0.51 21 998.4
20260508224018 5 8 16.1 19.3 0.00 0.51 0.51 21 998.6
20260508223016 5 10 16.1 19.3 0.00 0.51 0.51 22 998.8
20260508222057 6 11 16.1 19.3 0.00 0.51 0.51 22 999.1
20260508221017 6 12 16.1 19.3 0.00 0.51 0.51 22 999.3
20260508220020 7 14 16.1 19.3 0.00 0.51 0.51 22 999.6
20260508215017 7 15 16.1 17.7 0.00 0.51 0.51 23 999.9
20260508214017 8 17 16.1 17.7 0.00 0.51 0.51 23 1000.2